Weather History for KILG - February, 2014

Change the Weather History Date:

Monday, February 10, 2014

  Actual Average Record
Temperature  
Mean Temperature 23 °F 34 °F  
Max Temperature 28 °F 42 °F 63 °F (1990)
Min Temperature 18 °F 26 °F -2 °F (1979)
Degree Days  
Heating Degree Days 42 31  
Month to date heating degree days 338 315  
Since 1 July heating degree days 3259 3102  
Cooling Degree Days 0 0  
Month to date cooling degree days 0 0  
Year to date cooling degree days 0 0  
Moisture  
Dew Point 12 °F    
Average Humidity 71    
Maximum Humidity 92    
Minimum Humidity 50    
Precipitation  
Precipitation 0.00 in 0.09 in 0.90 in (2010)
Month to date precipitation 2.69 0.96  
Year to date precipitation 5.92 3.97  
Snow  
Snow 0.00 in 0.30 in 7.20 in (2010)
Month to date snowfall 3.0 3.2  
Since 1 July snowfall 32.4 12.9  
Snow Depth 2.00 in    
Sea Level Pressure  
Sea Level Pressure 30.22 in    
Wind  
Wind Speed 12 mph (NW)    
Max Wind Speed 22 mph    
Max Gust Speed 27 mph    
Visibility 9 miles    
Events      
T = Trace of Precipitation, MM = Missing Value Source: NWS Daily Summary

Daily Weather History Graph

Daily Weather History Graph

Search for Another Location

Airport or City:

Trip Planner

Search our weather history database for the weather conditions in past years. The results will help you decide how hot, cold, wet, or windy it might be!

Date:

Astronomy

Feb. 10, 2014 Rise Set
Actual Time 7:00 AM EST 5:32 PM EST
Civil Twilight 6:32 AM EST 6:00 PM EST
Nautical Twilight 6:01 AM EST 6:32 PM EST
Astronomical Twilight 5:29 AM EST 7:04 PM EST
Moon 2:00 PM EST (2/10) 3:51 AM EST (2/10)
Length of Visible Light 11h 27m
Length of Day
10h 32m
Waxing Gibbous, 84% of the Moon is Illuminated
Feb 10
Waxing Gibbous
Feb 14
Full
Feb 22
Last Quarter
Mar 1
New
Mar 8
First Quarter

Hourly Weather History & Observations

Time (EST) Temp. Windchill Dew Point Humidity Pressure Visibility Wind Dir Wind Speed Gust Speed Precip Events Conditions
12:51 AM 21.9 °F 12.5 °F 19.9 °F 92% 30.08 in 4.0 mi NW 8.1 mph - N/A   Clear
1:51 AM 26.1 °F 16.2 °F 21.9 °F 84% 30.06 in 5.0 mi NW 10.4 mph - N/A   Overcast
2:51 AM 26.1 °F 16.2 °F 21.0 °F 81% 30.09 in 5.0 mi NW 10.4 mph - N/A   Haze
3:51 AM 26.1 °F 15.6 °F 18.0 °F 71% 30.10 in 7.0 mi NW 11.5 mph - N/A   Clear
4:51 AM 23.0 °F 12.4 °F 17.1 °F 78% 30.15 in 6.0 mi NW 10.4 mph - N/A   Haze
5:51 AM 21.9 °F 9.2 °F 10.9 °F 63% 30.17 in 10.0 mi WNW 13.8 mph - N/A   Clear
6:51 AM 19.9 °F 8.6 °F 9.0 °F 62% 30.21 in 10.0 mi WNW 10.4 mph - N/A   Clear
7:51 AM 19.9 °F 6.7 °F 10.0 °F 65% 30.22 in 10.0 mi NW 13.8 mph - N/A   Clear
8:51 AM 21.9 °F 9.2 °F 10.0 °F 60% 30.23 in 10.0 mi NW 13.8 mph 23.0 mph N/A   Clear
9:51 AM 23.0 °F 8.3 °F 10.0 °F 58% 30.24 in 10.0 mi NW 19.6 mph - N/A   Clear
10:51 AM 25.0 °F 13.1 °F 10.0 °F 53% 30.24 in 10.0 mi NW 13.8 mph - N/A   Clear
11:51 AM 26.1 °F 14.5 °F 10.9 °F 53% 30.23 in 10.0 mi NNW 13.8 mph - N/A   Clear
12:51 PM 26.1 °F 13.6 °F 10.9 °F 53% 30.22 in 10.0 mi NW 16.1 mph 24.2 mph N/A   Clear
1:51 PM 27.0 °F 13.5 °F 10.9 °F 51% 30.20 in 10.0 mi NW 19.6 mph - N/A   Clear
2:51 PM 27.0 °F 15.2 °F 10.9 °F 51% 30.20 in 10.0 mi WNW 15.0 mph 23.0 mph N/A   Clear
3:51 PM 27.0 °F 15.2 °F 10.9 °F 51% 30.22 in 10.0 mi WNW 15.0 mph - N/A   Clear
4:51 PM 26.1 °F 14.5 °F 10.0 °F 51% 30.24 in 10.0 mi WNW 13.8 mph - N/A   Scattered Clouds
5:51 PM 24.1 °F 13.1 °F 9.0 °F 53% 30.25 in 10.0 mi NW 11.5 mph - N/A   Clear
6:51 PM 21.0 °F 11.4 °F 9.0 °F 60% 30.27 in 10.0 mi WNW 8.1 mph - N/A   Clear
7:51 PM 19.0 °F 9.0 °F 7.0 °F 59% 30.29 in 10.0 mi NW 8.1 mph - N/A   Clear
8:51 PM 21.9 °F 15.7 °F 7.0 °F 53% 30.30 in 10.0 mi WNW 4.6 mph - N/A   Clear
9:51 PM 19.9 °F 13.4 °F 8.1 °F 60% 30.31 in 10.0 mi WNW 4.6 mph - N/A   Clear
10:51 PM 19.0 °F 12.3 °F 8.1 °F 62% 30.32 in 10.0 mi West 4.6 mph - N/A   Clear
11:51 PM 18.0 °F 11.1 °F 8.1 °F 65% 30.34 in 9.0 mi West 4.6 mph - N/A   Clear